Starlink 6038

operational
NORAD ID: 56317 Int'l Des: 2023-058 Owner: SPXS Country: US Constellation: starlink
LEOCIRCULARRETROGRADESSO

关于 Starlink 6038

正在加载描述...

实时位置

正在加载3D地球...

即将过境

高度历史

Altitude vs Time

uPlot chart will show altitude changes over time

两行轨道根数

1 56317U 23058A 26036.50084552 .00000431 00000-0 34084-4 0 9997
2 56317 97.6046 39.4911 0002208 97.3131 262.8347 15.05649927153008
Epoch: Feb 5, 2026 • Age: 7 hours

当前状态

高度 558.0 km
速度 7.59 km/s
星下点 57.38°N, 27.99°W
发射日期 Apr 27, 2023
运行时间 2.7 years
类型 internet

技术详情

分类 Payload
质量 300.00 kg
干质量 260.00 kg
总质量 300.00 kg
长度 0.20 m
直径 2.80 m
跨度 9.00 m
形状 Box + pan
制造商 SPXS
平台类型 Starlink
阶段状态 In Orbit
所有者/国家 SPXS/US

大型星座

Loading constellations...